Location: Vancouver
(49.2500°N, 123.1330°W)
Time: 00:33:01
(UTC-08:00)

deb Explorer IX - Visible Passes

Search period start: 04 March 2015 00:00
Search period end: 14 March 2015 01:00
Orbit: 551 x 1172 km, 38.8° (Epoch: 03 March)

Date Brightness Start Highest point End Pass type
(mag) Time Alt. Az. Time Alt. Az. Time Alt. Az.
04 Mar ? 03:39:20 29° SSE 03:39:20 29° SSE 03:43:50 10° SE visible
04 Mar ? 05:21:28 16° SW 05:24:21 20° SSW 05:29:29 10° SSE visible
05 Mar ? 03:29:16 24° SSE 03:29:16 24° SSE 03:32:43 10° SE visible
05 Mar ? 05:11:24 17° SW 05:13:18 18° SSW 05:18:04 10° S visible
06 Mar ? 03:19:14 19° SSE 03:19:14 19° SSE 03:21:30 10° SE visible
06 Mar ? 05:01:23 16° SW 05:02:09 16° SSW 05:06:28 10° S visible
07 Mar ? 03:09:16 13° SE 03:09:16 13° SE 03:10:12 10° SE visible
07 Mar ? 04:51:24 14° SSW 04:51:24 14° SSW 04:54:40 10° S visible
08 Mar ? 05:41:30 12° SSW 05:41:30 12° SSW 05:42:37 10° SSW visible
13 Mar ? 21:20:16 10° SSW 21:21:31 14° S 21:21:31 14° S visible
